STARLINK-1448, 45665

Orbit data source: Space-Track

STARLINK-1448, 45665 is a payload satellite owned by SpaceX/Seattle (US) in LEO that was launched on Thu, 04 Jun 2020 UTC via an FALCON 9 launch vehicle from the Air Force Eastern Test Range (AFETR). Payload-class satellites include a variety of spacecraft equipped with specific instruments for various scientific and technological missions. These include communications satellites like Starlink; space stations such as the ISS; scientific satellites like the Hubble; Earth observation satellites from companies like Planet Labs, Umbra, and HawkEye 360; GPS; miniature CubeSats for education and research; and military/defense satellites.

Loading next visibility...
Identifier
45665, 2020-035J
Orbit
LEO
Country
Flag of USUS
Related business
Manufacturer
SpaceX/Seattle
Mission
Partially operational Commercial Communications
Bus & Motor
STARLINK, Unknown motor
Mass
260 kg wet, ~248 kg dry
Launch date (UTC)
2020-06-04 (6 years ago)
Launch vehicle
FALCON 9
Launch site
Air Force Eastern Test Range (AFETR)
Object type
Payload
Rocket body
Debris
Shape & HBR
Box + 1 Pan, 10.1 m
Radar Cross Section
13.562 m², Large (>1 m²)

Expand to show TLE details & history
Last TLE update: 9 hours ago

TLE from 9 hours ago
0 STARLINK-1448
1 45665U 20035J   26162.91977064  .00055676  00000-0  48043-3 0  9997
2 45665  53.0435 312.5660 0003996 103.2832 256.8630 15.68714135333647
Epoch: 2026-06-11T22:04Z
TLE epoch observation values (Epoch: 2026-06-11T22:04:28.183Z)
Latitude
0.00001°
Longitude
81.19192°
Altitude
364.093 km
Speed
7.692 km/s
True Right ascension
20h 50m 15s
True Declination
0° 00' 00"
Sunlit
Object was in full shadow at epoch
Visualization orbit readout
Latitude
Unknown
Longitude
Unknown
Altitude
Unknown
Speed
Unknown
Apparent Right ascension
Unknown
Apparent Declination
Unknown
Sunlit
N/A
Visualization observer readout
Local Sidereal Time
17:14:27
Azimuth
Unknown
Elevation
Unknown
Doppler factor
Unknown
Orbital elements
Apogee altitude
365.551 km
Perigee altitude
360.164 km
Semi-major axis
6,740.995 km
Eccentricity
0.0004
Inclination
53.0435°
RAAN
312.566°
Arg. of periapsis
103.2832°
True anomaly
256.81841°
Mean anomaly
256.863°
Eccentric anomaly
256.84071°
Mean motion
3.92154 °/min
Orbital period
91.8 mins
BSTAR
0.00048043
Loading maneuver chart data...
Computing Atmospheric mass density...

Documentation

Showing up to 5 results
|